Regional Weather Roundup
Issued by NWS

Home | Current Version | Previous Version | Graphics & Text | Print | Product List | Glossary Off
Versions: 1 2 3 4 5 6 7 8 9 10 11 12 13 14 15 16 17 18 19 20 21 22 23 24 25 26 27 28 29 30 31 32 33 34 35 36 37 38 39 40 41 42 43 44 45 46 47 48 49 50

000
ASUS43 KMPX 241701
RWRMN
WEATHER ROUNDUP FOR MINNESOTA
NATIONAL WEATHER SERVICE TWIN CITIES/CHANHASSEN MN
1200 PM CDT MON JUL 24 2017


NOTE: "FAIR" INDICATES FEW OR NO CLOUDS BELOW 12,000 FEET WITH NO
SIGNIFICANT WEATHER AND/OR OBSTRUCTIONS TO VISIBILITY. N/A MEANS
CURRENT SKY AND/OR WEATHER CONDITIONS ARE NOT AVAILABLE.

MNZ060>063-068>070-241800-
   Twin Cities Metro

CITY           SKY/WX    TMP DP  RH WIND       PRES   REMARKS
TWIN CITIES    PTSUNNY   73  58  59 S7        30.06F
ST PAUL        FAIR      72  60  66 SE6       30.06F
CRYSTAL        PTSUNNY   72  55  55 CALM      30.04S
BLAINE         PTSUNNY   73  59  60 E7        30.06F
LAKEVILLE      CLOUDY    70  59  68 S5        30.07S
EDEN PRAIRIE   PTSUNNY   73  58  59 VRB5      30.05S
SOUTH ST PAUL  FAIR      73  57  59 S6        30.05F
LAKE ELMO      FAIR      72  61  68 E7        30.07F
$$
MNZ001>005-007-008-013>017-022>024-027-028-241800-
   Northwest Minnesota

CITY           SKY/WX    TMP DP  RH WIND       PRES   REMARKS
BEMIDJI        FAIR      73  55  53 S8        30.02F
HALLOCK        FAIR      75  64  69 S17G23    29.92F
ROSEAU         FAIR      75  64  69 S14G20    29.97F
WARROAD        FAIR      75  64  69 S8        29.98F
CROOKSTON      FAIR      73  63  68 S15       29.96F
FOSSTON        FAIR      73  61  64 S12G18    30.00F
DETROIT LAKES  FAIR      72  59  64 S10       30.02F
MOORHEAD       FAIR      73  63  68 S14       29.98F
PARK RAPIDS    FAIR      73  58  59 S7        30.04S
MAHNOMEN       FAIR      74  61  63 S9G16     30.00F
$$
MNZ006-009>011-018-025>026-241800-
   North Central Minnesota

CITY           SKY/WX    TMP DP  RH WIND       PRES   REMARKS
BAUDETTE       PTSUNNY   75  60  59 S10       29.99F
FLAG ISLAND    FAIR      73  63  68 S7        29.97F
INTL FALLS     FAIR      74  54  49 SE8       30.03F
WASKISH        PTSUNNY   75  57  53 S8        30.01F
BIG FORK       FAIR      73  55  53 S6        30.05F
LONGVILLE      FAIR      72  59  64 S5        30.05F
GRAND RAPIDS   FAIR      67  57  70 SE7       30.09S
CRANE LAKE     FAIR      72  54  53 S6        30.08F
ORR            FAIR      73  48  40 SE12      30.03F
COOK           FAIR      72  52  49 SE6       30.07F
WALKER         FAIR      71  57  61 E6        30.04F
$$
MNZ012-019>021-037-241800-
   Northeast Minnesota

CITY           SKY/WX    TMP DP  RH WIND       PRES   REMARKS
DULUTH         FAIR      69  55  60 SE12      30.09S
ELY            FAIR      72  50  46 SW9       30.08F
HIBBING        FAIR      71  51  49 SE9       30.08S
EVELETH          N/A    N/A N/A N/A S12         N/A  VSB 1/16
DULUTH HARBOR  FAIR      63  57  82 NE6       30.09F
TWO HARBORS    FAIR      72  57  60 S8        30.08S
GRAND MARAIS     N/A     56  55  97 SW12      30.09F
G MARAIS ARPRT FAIR      70  52  52 SW6       30.12S
$$
MNZ029>031-032-039>041-046>048-054>057-064-241800-
   West Central Minnesota

CITY           SKY/WX    TMP DP  RH WIND       PRES   REMARKS
FERGUS FALLS   FAIR      73  63  68 S13       29.99F
WHEATON        FAIR      75  61  60 SE15      29.99F
MORRIS         FAIR      75  63  64 SE13G18   30.00F
ALEXANDRIA     FAIR      71  60  68 SE10      30.04F
ELBOW LAKE     FAIR      72  62  72 SE12      30.02F
WADENA         FAIR      72  59  64 SE7       30.04S
GLENWOOD       FAIR      72  61  68 SE9       30.04F
APPLETON       FAIR      75  61  60 SE10      29.99F
BENSON         FAIR      73  61  64 S10       30.03F
ORTONVILLE     FAIR      75  61  60 SE9       29.99F
MADISON        FAIR      79  63  57 SE10G17   29.99F
WILLMAR        FAIR      72  63  73 SE7       30.05F
$$
MNZ033>034-036-042>043-049>051-058-059-241800-
   Central Minnesota

CITY           SKY/WX    TMP DP  RH WIND       PRES   REMARKS
ST CLOUD       PTSUNNY   70  60  70 VRB5      30.06S
SAUK CENTRE    FAIR      71  60  68 SE8       30.05F
PAYNESVILLE    FAIR      71  59  64 SE7       30.06S
AITKIN         PTSUNNY   66  57  72 SE5       30.06F
PINE RIVER     FAIR      70  57  64 S8        30.08F
BRAINERD       FAIR      68  57  68 VRB7      30.07S
STAPLES        FAIR      72  57  60 SE8       30.05S
LONG PRAIRIE   FAIR      68  59  73 E8        30.06S
LITTLE FALLS   PTSUNNY   66  57  72 SE5       30.06S
LITCHFIELD     FAIR      72  61  68 SE9       30.06S
BUFFALO        PTSUNNY   72  58  59 SE5       30.07R
MAPLE LAKE     PTSUNNY   73  62  68 CALM      30.07S
HUTCHINSON     FAIR      71  62  73 SE8       30.06F
$$
MNZ037-044-045-052-053-241800-
   East Central Minnesota

CITY           SKY/WX    TMP DP  RH WIND       PRES   REMARKS
PRINCETON      PTSUNNY   73  61  64 CALM      30.06S
MORA           FAIR      68  57  68 S3        30.09S
CAMBRIDGE      FAIR      73  59  60 CALM      30.05S
RUSH CITY      PTSUNNY   69  59  70 CALM      30.07S
MOOSE LAKE     FAIR      70  55  60 CALM      30.06S
HINCKLEY       FAIR      66  59  77 S3        30.08S
CLOQUET        FAIR      70  52  52 SE8       30.08S
MCGREGOR       FAIR      70  59  68 S3        30.07F
$$
MNZ071>073-080-081-089-090-097-098-241800-
   Southwest Minnesota

CITY           SKY/WX    TMP DP  RH WIND       PRES   REMARKS
MONTEVIDEO     FAIR      77  63  61 S8        30.02F
GRANITE FALLS  FAIR      75  63  66 SE8       30.04F
CANBY          FAIR      78  60  53 CALM      30.01F
MARSHALL       PTSUNNY   75  62  64 S9G16     30.02F
REDWOOD FALLS  FAIR      73  61  65 SE10      30.03F
OLIVIA         FAIR      72  61  68 SE7       30.04S
PIPESTONE      FAIR      73  61  64 S8        30.02F
WINDOM         FAIR      73  61  64 SE6       30.04F
WORTHINGTON    FAIR      73  61  65 MISG      30.05F
JACKSON        FAIR      72  61  68 CALM      30.05F
TRACY            N/A     74  63  69 S6        30.04
SLAYTON        HVY RAIN  72  60  66 SE7       30.05F
$$
MNZ065>067-074>077-082>085-091>093-241800-
   South Central Minnesota

CITY           SKY/WX    TMP DP  RH WIND       PRES   REMARKS
MANKATO        PTSUNNY   70  60  70 VRB6      30.06F
NEW ULM        FAIR      70  59  68 S6        30.04F
ST JAMES       FAIR      72  61  68 E5        30.06S
FAIRMONT       FAIR      71  61  70 SE8       30.05F
GLENCOE        PTSUNNY   71  63  76 CALM      30.06S
FARIBAULT      CLOUDY    70  61  73 E3        30.07S
OWATONNA       CLOUDY    72  61  68 E6        30.07S
WASECA         CLOUDY    70  59  68 CALM      30.08S
ALBERT LEA     CLOUDY    72  61  68 SE3       30.07S
$$
MNZ078>079-086>088-094>096-241800-
   Southeast Minnesota

CITY           SKY/WX    TMP DP  RH WIND       PRES   REMARKS
ROCHESTER      PTSUNNY   69  60  73 E7        30.08F
RED WING       FAIR      73  55  53 S3        30.06S
STANTON        CLOUDY    71  59  65 S5        30.06F
DODGE CENTER   PTSUNNY   68  57  68 CALM      30.08S
WINONA         CLOUDY    68  57  68 SE7       30.09S
AUSTIN         CLOUDY    70  57  64 E3        30.07S
PRESTON        CLOUDY    66  57  71 E6        30.09S
$$
ABBREVIATIONS USED IN REMARKS
   TC - TEMPERATURES IN CELSIUS
  WCI - WIND CHILL INDEX
   HX - HEAT INDEX
  VSB - VISIBILITY
$$




USA.gov is the U.S. government's official web portal to all federal, state and local government web resources and services.